STARLINK-2271

Last updated on Sat Apr 24 2021 00:02:02 GMT+0000 (Coordinated Universal Time)

1 48008U 21024AH 21113.25001157 .00067037 00000-0 47922-3 0 9998 2 48008 53.0484 55.6753 0001047 73.5330 90.1619 15.73148923 1820

Satellite not in orbit